Regional Weather Roundup
Issued by NWS

Home | Current Version | Previous Version | Text Only | Print | Product List | Glossary On
Versions: 1 2 3 4 5 6 7 8 9 10 11 12 13 14 15 16 17 18 19 20 21 22 23 24 25 26 27 28 29 30 31 32 33 34 35 36 37 38 39 40 41 42 43 44 45 46 47 48 49 50
000
ASUS43 KLMK 221110
RWRKY
KENTUCKY REGIONAL WEATHER ROUNDUP
NATIONAL WEATHER SERVICE LOUISVILLE KY
700 AM EDT MON SEP 22 2014

NOTE "FAIR" INDICATES FEW OR NO CLOUDS BELOW 12,000 FEET
WITH NO SIGNIFICANT WEATHER AND/OR OBSTRUCTIONS TO VISIBILITY.

KYZ001>023-026-027-061>063-070>075-221200-
WESTERN AND SOUTH CENTRAL KENTUCKY

CITY           SKY/WX    TMP DP  RH WIND       PRES   REMARKS
PADUCAH        CLEAR     56  50  80 CALM      30.17R
HENDERSON      CLEAR     54  48  82 NE3       30.19R
OWENSBORO      CLEAR     55  51  86 N3        30.18R
HOPKINSVILLE   CLEAR     53  51  94 N3        30.16R
BOWLING GREEN  CLEAR     51  48  89 CALM      30.17R
GLASGOW        CLEAR     51  49  95 CALM      30.16R
$$

KYZ024-025-028>034-038-045-046-053-221200-
NORTH CENTRAL KENTUCKY

CITY           SKY/WX    TMP DP  RH WIND       PRES   REMARKS
LOUISVILLE/SDF PTCLDY    55  49  80 N6        30.17R
LOUISVILLE/LOU CLEAR     55  48  77 N3        30.17R
FORT KNOX      CLEAR     54  48  82 N6        30.16R
$$

KYZ035>037-039>044-047>052-055>060-089>105-221200-
NORTHEAST KENTUCKY

CITY           SKY/WX    TMP DP  RH WIND       PRES   REMARKS
LEXINGTON      CLEAR     50  46  86 NW6       30.15R
COVINGTON      PTCLDY    48  42  80 N7        30.15R
FRANKFORT      CLEAR     47  44  90 NW3       30.15R
$$

KYZ054-064>069-076>088-106>120-221200-
SOUTHEAST KENTUCKY

CITY           SKY/WX    TMP DP  RH WIND       PRES   REMARKS
JACKSON        CLEAR     50  47  89 CALM      30.12R
LONDON         CLEAR     50  46  86 CALM      30.14R
SOMERSET       CLEAR     50  46  87 N3        30.16R
MIDDLESBORO    CLEAR     50  49  97 CALM      30.12R
MONTICELLO     SUNNY     47  47 100 CALM      30.16R
$$




USA.gov is the U.S. government's official web portal to all federal, state and local government web resources and services.